Regional Weather Roundup
Issued by NWS Newport/Morehead, NC

Current Version | Previous Version | Graphics & Text | Print | Product List | Glossary Off
Versions: 1 2 3 4 5 6 7 8 9 10 11 12 13 14 15 16 17 18 19 20 21 22 23 24 25 26 27 28 29 30 31 32 33 34 35 36 37 38 39 40 41 42 43 44 45 46 47 48 49 50

000
ASUS42 KMHX 120225
RWRMHX
WEATHER ROUNDUP FOR EASTERN NORTH CAROLINA
NATIONAL WEATHER SERVICE NEWPORT/MOREHEAD CITY NC
900 PM EST MON DEC 11 2017

NOTE: "FAIR" INDICATES FEW OR NO CLOUDS BELOW 12,000 FEET
WITH NO SIGNIFICANT WEATHER AND/OR OBSTRUCTIONS TO VISIBILITY

NCZ015>017-031-032-045>047-102-103-120300-
NORTH COAST

CITY           SKY/WX    TMP DP  RH WIND       PRES   REMARKS
EDENTON        CLEAR     42  37  81 S6        30.02S
ELIZABETH CITY CLEAR     42  36  79 SE6       30.02S
KITTY HAWK     CLEAR     41  30  65 CALM      30.01F
MANTEO         CLEAR     35  32  90 CALM      30.02F

$$

NCZ045>047-081-094-103-104-120300-
CENTRAL COAST

CITY           SKY/WX    TMP DP  RH WIND       PRES   REMARKS
FRISCO         CLEAR     35  33  92 E3        30.03S

$$

NCZ095-097-098-100-101-120300-
SOUTHERN COAST

CITY           SKY/WX    TMP DP  RH WIND       PRES   REMARKS
BEAUFORT       CLEAR     38  35  89 CALM      30.04S
CEDAR ISLAND   NOT AVBL
JACKSONVILLE   CLEAR     36  35  96 CALM      30.03F
PINEY ISLAND     N/A    N/A N/A N/A SW7       30.04S
WILMINGTON     CLEAR     36  33  89 CALM      30.05F


$$

NCZ011>013-027>030-043-044-078>080-089-090>093-098-120300-
COASTAL PLAIN

CITY           SKY/WX    TMP DP  RH WIND       PRES   REMARKS
AHOSKIE        CLEAR     32  31  99 CALM      30.00F
CLINTON        CLEAR     39  32  77 CALM      30.02F
ELIZABETHTOWN  NOT AVBL
GOLDSBORO      CLEAR     43  29  58 S3        29.99F
GREENVILLE     CLEAR     34  32  93 S5        30.02F
HAVELOCK       CLEAR     36  32  85 CALM      30.04F
KENANSVILLE    CLEAR     36  30  80 S3        30.02F
KINSTON        CLEAR     39  32  75 S8        30.02F
NEW BERN       CLEAR     34  33  96 S3        30.03F
RICHLANDS      CLEAR     34  32  92 SW3       30.04F
ROCKY MOUNT    CLEAR     36  34  92 S3        29.99F
WASHINGTON     CLEAR     42  34  75 S3        30.02F
WHITEVILLE     CLEAR     41  36  84 SW3       30.03S

$$

AMZ130-135-150-152-154-156-158-170-250-252-270-ANZ085-086-088-633-658-670-120300-
MARINE OBSERVATIONS

STATION/POSITION TIME  TEMP    WIND        PRES    WAVE   SWELL
                       AIR SEA DIR/SP/G            HT/PER HT/PER
                 (UTC) (F)     (DEG/KT/KT) (MB)    (FT/S) (FT/S)
CHESAPEAKE LIGHT NOT AVBL
64 E VA BEACH    0150   49 58  190/  8/ 10 1016.9    2/ 6   2/ 6
DUCK             0200   46 54  170/  9/ 11 1015.9
2 E DUCK         0200      54                N/A     1/ 9
OREGON INLET     0200   44 46  140/  4/  4 1016.6
13E OREGON INLT  0148      57                N/A     2/ 8   2/ 8
HATTERAS CG      0200   46 54  360/  1/  1 1016.8
DIAMOND BUOY     0210   57 75  200/  4/  8 1016.9
CAPE LOOKOUT     0200          250/  3/  3 1017.2
BEAUFORT LAB     0200   46 51  350/  2/  4 1017.1
30 SE NEW RVR IN 0208   55 67  230/  8/ 10 1017.1
30 SE NEW RVR IN 0200      67                N/A     3/ 6
27 SE WRIGHTSVLE 0208   53 66  260/  8/ 14 1017.2
5 SE WRIGHTSVLE  0208   51 58  250/  6/ 10 1017.0
225 S CAPE HAT   0150   67 76  250/ 12/ 16 1018.4    4/ 6   3/ 8
41 SE CHARLESTON 0210      73  250/ 16/ 21 1017.6

$$



USA.gov is the U.S. government's official web portal to all federal, state and local government web resources and services.